Location: �perlecques
(50.8057°N, 2.1521°E)
Time: 00:43:16
(UTC+00:00)

ITAMSAT 1 - Pass Details

Date: 04 April 2023
Orbit: 782 x 797 km, 98.8° (Epoch: 07 June)

Event Time Altitude Azimuth Distance (km) Brightness Sun altitude
Rises 20:26:18 0° 199° (SSW) 3,281 10.7 -17.9°
Reaches altitude 10° 20:29:00 10° 212° (SSW) 2,359 10.1 -18.3°
Maximum altitude 20:33:17 26° 267° (W) 1,546 9.7 -18.8°
Drops below altitude 10° 20:37:37 10° 323° (NW) 2,379 11.3 -19.4°
Sets 20:40:21 0° 336° (NNW) 3,315 12.0 -19.7°
